Location: Appeville
(49.3218°N, 1.3427°W)
Time: 21:17:40
(UTC+00:00)

Okean 1-7 - Pass Details

Date: 08 December 2019
Orbit: 591 x 619 km, 82.5° (Epoch: 21 January)

Event Time Altitude Azimuth Distance (km) Brightness Sun altitude
Exits shadow 06:20:12 15° 325° (NW) 1,688 4.8 -13.4°
Maximum altitude 06:23:10 31° 270° (W) 1,103 3.8 -13.0°
Drops below altitude 10° 06:27:01 10° 209° (SSW) 1,979 5.6 -12.4°
Sets 06:29:25 0° 199° (SSW) 2,877 6.5 -12.0°
